SL-8 R/B (21938 NORAD) Tracking and Keplerian Element Data

This shows tracking and keplerian element data for the satellite.

Feedback or suggestion? Click here.




ElementValue
Catalog21938
NameSL-8 R/B
Epoch Orbit33777
Epoch Day345.08009428
Epoch Year2018
RAAN318.1482
Inclination82.9283
Eccentricity0.0030391
Argument of Perigee118.958
Mean Anonmoly309.6694
Mean Motion13.75263221
Decay Rate-3.5E-07
L11 21938U 92020B 18345.08009428 -.00000035 00000-0 -52977-4 0 9992
L22 21938 82.9283 318.1482 0030391 118.9580 309.6694 13.75263221337778

Live tracking and technical data element details for SL-8 R/B (NORAD 21938). SL-8 R/B can be tracked NOW for your location showing map with azimuth and elevation plus other details from your city location.

Track the satellite on the map from your city or location and see movement details for azimuth, elevation, latitude, longitude, range, height, and movement on the map or in text.







IsCatalogInMostPopularTable: catalog: 21938, numindb: 39
Update: records affected: 1



GetName: 21938 SL-8 R/B

Hit Count: updated at: Thu, 13 Dec 2018 03:26:53 GMT